Regional Weather Roundup
Issued by NWS

Home | Current Version | Previous Version | Text Only | Print | Product List | Glossary On
Versions: 1 2 3 4 5 6 7 8 9 10 11 12 13 14 15 16 17 18 19 20 21 22 23 24 25 26 27 28 29 30 31 32 33 34 35 36 37 38 39 40 41 42 43 44 45 46 47 48 49 50
000
ASPQ40 PGUM 310012
RWRPQ
WEATHER ROUNDUP FOR THE MARIANAS AND MICRONESIA
NATIONAL WEATHER SERVICE TIYAN GU
1000 AM CHST FRI MAR 31 2017

GUZ001>004-310100-
MARIANA ISLANDS-

CITY           SKY/WX    TMP DP  RH WIND       PRES   REMARKS
GUAM AIRPORT   LGT RAIN  81  79  94 E12       29.97S FOG
ANDERSEN AFB   MOSUNNY   81  75  83 E21G26    29.98S
ROTA AIRPORT   PTSUNNY   81  73  78 E16G25    29.98S
TINIAN AP      MOSUNNY   84  73  70 E17       29.97S HX  91
SAIPAN AP      PTSUNNY   86  73  66 E17       29.98S HX  93

$$

PMZ161-310100-
REPUBLIC OF PALAU-

CITY           SKY/WX    TMP DP  RH WIND       PRES   REMARKS
KOROR AP       CLOUDY    82  75  78 E10       29.87R
KOROR WSO      NOT AVBL

$$

PMZ171>174-310100-
FEDERATED STATES OF MICRONESIA-

CITY           SKY/WX    TMP DP  RH WIND       PRES   REMARKS
YAP AIRPORT    PTSUNNY   86  77  74 E12       29.90R HX  97
CHUUK AP       CLOUDY    84  84 100 NE12      29.86F HX 104
POHNPEI AP     NOT AVBL
POHNPEI WSO    PTSUNNY   88  73  62 NE7       29.89F HX  96
KOSRAE AP      CLOUDY    84  75  74 E14       29.84F HX  92

$$

PMZ181-310100-
REPUBLIC OF THE MARSHALL ISLANDS-

CITY           SKY/WX    TMP DP  RH WIND       PRES   REMARKS
KWAJALEIN AP   MOSUNNY   88  72  58 NE17      29.87S HX  94
MAJURO AP      LGT RAIN  79  77  94 VRB5      29.86F
MAJURO WSO     LGT RAIN  77  75  94 CALM      29.85F

$$




USA.gov is the U.S. government's official web portal to all federal, state and local government web resources and services.